Search for airport 
image banner adimage banner ad
image banner ad

WAPP - Ambon/Pattimura

Located in Ambon, Indonesia

ICAO - WAPP, IATA - AMQ

Data provided by Airmate  

General information

Coordinates: S3°42'27" E128°5'22"
Elevation is 33 feet MSL.
 
Rated:
View ratings: [VIEW]


View others Airports in Maluku

Operational data

Open for public use
Current time UTC:
Current local time:
Weather
METAR: WAPP 070030Z 04003KT 010V080 7000 SCT017 26/23 Q1012 NOSIG
TAF: TAF WAPP 062300Z 0700/0724 36007KT 9000 SCT017 TEMPO 0716/0720 4000 RA
View NOTAMs / SUP AIP / TFR affecting this airport [VIEW]
Communications frequencies: [VIEW]

Runways:

RWY identifierQFULength (ft)Width (ft)SurfaceLDA (ft)
0443°8202148ASP
22223°8202148

Airport contact information

Address: Ambon Indonesia

Satellite view of WAPP